Regional Weather Roundup
Issued by NWS New Orleans/Baton Rouge, LA

Home | Current Version | Previous Version | Text Only | Print | Product List | Glossary Off
Versions: 1 2 3 4 5 6 7 8 9 10 11 12 13 14 15 16 17 18 19 20 21 22 23 24 25 26 27 28 29 30 31 32 33 34 35 36 37 38 39 40 41 42 43 44 45 46 47 48 49 50

415
ASUS44 KLIX 231605
RWRLIX
NEW ORLEANS REGIONAL WEATHER ROUNDUP
NATIONAL WEATHER SERVICE NEW ORLEANS LA
1000 AM CST SUN NOV 23 2014

NOTE: "FAIR" INDICATES FEW OR NO CLOUDS BELOW 12,000 FEET WITH NO
      SIGNIFICANT WEATHER AND/OR OBSTRUCTIONS TO VISIBILITY.
      SKY/WX - SKY CONDITION AND SIGNIFICANT WEATHER.
      TMP - AIR TEMPERATURE.     DP    - DEWPOINT TEMPERATURE.
      RH  - RELATIVE HUMIDITY.   PRES  - PRESSURE.
      HI  - HEAT INDEX.          WCI   - WIND CHILL INDEX.

*  THESE STATIONS ARE NOT NWS OR FAA STATIONS AND ARE NOT UNDER
   NWS QUALITY CONTROL.

LAZ038-040-048-061>063-065>067-069-231700-
SOUTHEAST LOUISIANA

CITY           SKY/WX    TMP DP  RH WIND       PRES   REMARKS
N.O. AUDUBON   NOT AVBL
N.O. INTL ARPT CLOUDY    63  59  87 S21G28    29.69S
N.O. LAKEFRONT LGT RAIN  64  59  83 S20       29.69F
N.O. DOWNTOWN* CLOUDY    63  57  82 S14G22    29.70S
SLIDELL        LGT RAIN  64  61  90 S16G23    29.71S
BATON ROUGE    PTSUNNY   66  60  81 S20G28    29.67S
BOOTHVILLE     LGT RAIN  63  61  93 SW14      29.79F
BELLE CHASSE   LGT RAIN  62  59  90 S18G24    29.70F
BOGALUSA*        N/A     68  63  84 S9        29.67S
NEW ROADS*     CLOUDY    65  60  85 S15G23    29.67R
GONZALES*        N/A     65  64  96 S9        29.69S
HAMMOND*       CLOUDY    64  59  82 S10G18    29.71R
HOUMA*         PTSUNNY   63  63 100 S14G22    29.73R
PORT FOURCHON* SUNNY     66  61  82 S16G26    29.77F FOG

$$

MSZ070-080>082-231700-
SOUTHERN MISSISSIPPI

CITY           SKY/WX    TMP DP  RH WIND       PRES   REMARKS
MCCOMB         CLOUDY    65  61  87 S15G23    29.65R
GULFPORT       LGT RAIN  64  62  93 SW9G24    29.75R
BILOXI         LGT RAIN  63  63 100 SW9       29.76R
PASCAGOULA     CLOUDY    65  62  90 SW8G18    29.74R
STENNIS ARPT*  CLOUDY    64  61  88 S14       29.70F

$$

COASTAL OBSERVATIONS
LAKE AND NEARSHORE STATIONS

STATION/POSITION TIME  TEMP    WIND        PRES    WAVE
                       AIR SEA DIR/SP/G            HT/PER
                 (UTC) (F)     (DEG/KT/KT) (MB)    (FT/S)
PASCAGOULA       1600   64     220/ 17/ 21 1007.0
WAVELAND YACHT   1600   63     220/ 11/ 14 1006.0
GRAND ISLE       1600   66 63  190/  9/ 15 1007.9
SOUTHWEST PASS   1600   64 71              1010.4
NEW CANAL        1600   63 54  170/  9/ 14 1005.7
SHELL BEACH      1600   62 53  170/ 15/ 19 1007.5

OFFSHORE STATIONS

STATION/POSITION TIME  TEMP    WIND        PRES    WAVE
                       AIR SEA DIR/SP/G            HT/PER
                 (UTC) (F)     (DEG/KT/KT) (MB)    (FT/S)
64 S DAUPHIN ISL 1453   69 73  260/ 27/ 33 1010.2    6/ 8

$$




USA.gov is the U.S. government's official web portal to all federal, state and local government web resources and services.